Regional Weather Roundup
Issued by NWS

Home | Current Version | Previous Version | Graphics & Text | Print | Product List | Glossary On
Versions: 1 2 3 4 5 6 7 8 9 10 11 12 13 14 15 16 17 18 19 20 21 22 23 24 25 26 27 28 29 30 31 32 33 34 35 36 37 38 39 40 41 42 43 44 45 46 47 48 49 50
000
ASUS43 KLMK 160410
RWRKY
KENTUCKY REGIONAL WEATHER ROUNDUP
NATIONAL WEATHER SERVICE LOUISVILLE KY
1200 AM EDT TUE SEP 16 2014

NOTE "FAIR" INDICATES FEW OR NO CLOUDS BELOW 12,000 FEET
WITH NO SIGNIFICANT WEATHER AND/OR OBSTRUCTIONS TO VISIBILITY.

KYZ001>023-026-027-061>063-070>075-160500-
WESTERN AND SOUTH CENTRAL KENTUCKY

CITY           SKY/WX    TMP DP  RH WIND       PRES   REMARKS
PADUCAH        CLOUDY    69  63  81 SW5       30.10S
HENDERSON      CLOUDY    70  59  68 SW6       30.08S
OWENSBORO      CLOUDY    69  62  78 SW7       30.08S
HOPKINSVILLE   MOCLDY    66  65  98 S3        30.11S
BOWLING GREEN  PTCLDY    68  62  81 SW6       30.11S
GLASGOW        CLOUDY    64  64  97 CALM      30.11S
$$

KYZ024-025-028>034-038-045-046-053-160500-
NORTH CENTRAL KENTUCKY

CITY           SKY/WX    TMP DP  RH WIND       PRES   REMARKS
LOUISVILLE/SDF LGT RAIN  66  59  78 SE6       30.07F
LOUISVILLE/LOU LGT RAIN  64  59  83 CALM      30.08S
FORT KNOX      CLOUDY    64  61  88 SW2       30.08S
$$

KYZ035>037-039>044-047>052-055>060-089>105-160500-
NORTHEAST KENTUCKY

CITY           SKY/WX    TMP DP  RH WIND       PRES   REMARKS
LEXINGTON      CLOUDY    65  59  81 S6        30.09S
COVINGTON      CLOUDY    60  57  89 N8        30.10R
FRANKFORT      CLOUDY    62  59  90 SW3       30.08S
$$

KYZ054-064>069-076>088-106>120-160500-
SOUTHEAST KENTUCKY

CITY           SKY/WX    TMP DP  RH WIND       PRES   REMARKS
JACKSON        CLOUDY    62  60  93 VRB6      30.10F
LONDON         CLOUDY    66  61  84 CALM      30.13F
SOMERSET       NOT AVBL
MIDDLESBORO    CLOUDY    64  63  97 CALM      30.15S
MONTICELLO     MOCLDY    64  63  97 CALM      30.14S
$$



USA.gov is the U.S. government's official web portal to all federal, state and local government web resources and services.